Bellini, L. Buzzi, G. Galli. Measurer L. Buzzi. 0.36-m f/8.4 reflector +
CCD.
M49 IAS Remote Observatory, Hakos. Observers D. Husar, M. Junius. Measurer
D. Husar. 0.25-m f/4.6 reflector + CMO.
M50 Virtual Telescope Project, Manciano. Observer G. Masi. 0.36-m f/6.9
Schmidt-Cassegrain + CCD.
U52 Shasta Valley Observatory, Grenada. Observers J. E. Rogers, B. Haeusler.
Measurers J. E. Rogers, D. Parrott. 0.30-m f/5.2 0.30-m Helin Telescope +
CCD.
X09 Deep Random Survey, Rio Hurtado. Observers A. Schnabel, D. Ruhela.
Measurer S. Deen. 0.43-m reflector + CMOS.
Z80 Northolt Branch Observatory. Observer G. Wells. Measurers G. Wells, D.
Bamberger. 0.25-m f/8.0 Ritchey-Chretien + CCD.
Orbital elements:
2023 RG13 Earth MOID = 0.0136 AU
Epoch 2023 Sept. 13.0 TT = JDT 2460200.5 Veres
M 158.00943 (2000.0) P Q
n 1.42459402 Peri. 193.05900 -0.99803430 +0.05741608
a 0.7822435 Node 350.12907 -0.03565077 -0.84978228
e 0.3269119 Incl. 8.42553 -0.05154188 -0.52399758
P 0.69 H 24.45 G 0.15 U 8
Residuals in seconds of arc
230915 L51 1.0+ 0.3- 230915 033 0.3+ 0.1- 230915 B72 0.2- 0.1+
230915 L51 1.1+ 0.3- 230915 246 0.4+ 0.3+ 230915 M21 0.1+ 0.3+
230915 L51 1.3+ 0.8- 230915 246 0.4- 0.5- 230916 M21 0.4- 0.2+
230915 X09 0.8+ 1.4+ 230915 246 0.7- 1.0- 230916 K87 0.4+ 0.2-
230915 X09 2.1+ 1.4+ 230915 246 0.4- 0.8- 230916 958 0.9+ 0.4-
230915 H21 0.5+ 0.2+ 230915 246 0.5- 0.2- 230916 K87 0.1+ 0.0
230915 H21 0.4+ 0.2+ 230915 246 0.3+ 0.5- 230916 958 0.5+ 0.2+
230915 H36 0.3+ 0.1- 230915 104 0.2- 0.4+ 230916 958 1.8+ 0.5-
230915 H21 0.5+ 0.2+ 230915 A17 0.1+ 0.0 230916 K74 0.1+ 0.1+
230915 H21 0.5+ 0.3+ 230915 M50 0.1- 0.2- 230916 M49 0.3+ 0.3+
230915 H21 0.4+ 0.3+ 230915 104 0.2+ 0.1+ 230916 M49 0.3+ 0.3+
230915 H36 0.1+ 0.1+ 230915 M50 0.3+ 0.3+ 230916 M49 0.1+ 0.5+
230915 H36 0.4+ 0.1- 230915 Z80 0.5+ 0.1+ 230916 K74 0.1- 0.0
230915 G96 0.5- 0.1+ 230915 104 0.1- 0.3+ 230916 K74 0.2- 0.0
230915 G96 0.3- 0.0 230915 A17 0.4+ 0.1- 230916 J04 0.1- 0.2+
230915 G96 0.1- 0.0 230915 Z80 1.1+ 0.4+ 230916 J04 0.3- 0.0
230915 G96 0.2+ 0.0 230915 A17 0.2+ 0.4- 230916 033 0.3- 0.2-
230915 106 0.2+ 0.1- 230915 595 0.1- 0.1- 230916 033 0.3- 0.0
230915 106 0.0 0.1- 230915 J95 0.1+ 0.1- 230916 033 0.2- 0.1-
230915 106 0.2+ 0.0 230915 K83 0.3+ 0.3+ 230916 H21 0.2- 0.2+
230915 113 0.7- 0.1+ 230915 J95 0.0 0.1- 230916 H21 0.0 0.2+
230915 106 0.1- 0.1+ 230915 J95 0.1- 0.4- 230916 H21 0.1- 0.2+
230915 113 0.7- 0.0 230915 595 0.0 0.2- 230916 H21 0.1- 0.2+
230915 G34 0.5+ 0.1+ 230915 K83 0.1+ 0.0 230916 H21 0.1- 0.3+
230915 G02 0.9+ 0.2- 230915 J95 0.1+ 0.0 230916 H21 0.0 0.3+
230915 G34 0.0 0.3+ 230915 K83 0.5+ 0.3- 230916 H21 0.1- 0.2+
230915 G02 0.6+ 0.0 230915 595 0.1+ 0.2+ 230916 U52 0.3- 0.1-
230915 G34 0.2- 0.2- 230915 595 0.2+ 0.2- 230916 U52 0.0 0.0
230915 G02 0.5+ 0.4- 230915 K63 0.1- 0.2- 230916 U52 0.1+ 0.4-
230915 G34 0.3+ 0.8- 230915 K63 0.3+ 0.0 230916 900 0.1- 0.3-
230915 G34 0.3+ 0.2+ 230915 K63 0.1+ 0.2- 230916 900 0.1+ 0.2-
230915 033 0.3+ 0.2- 230915 B72 0.0 0.5-
230915 033 0.0 0.1- 230915 B72 0.1+ 0.0
Ephemeris:
2023 RG13 a,e,i = 0.78, 0.33, 8 q = 0.5265
Date TT R. A. (2000) Decl. Delta r Elong. Phase V
2023 08 17 05 48 35.4 -01 04 04 0.1225 0.9573 60.0 113.6 24.2
...
2023 09 01 05 00 53.9 +04 59 11 0.07080 1.0042 83.8 92.2 22.0
...
2023 09 09 03 55 01.7 +13 41 48 0.04542 1.0210 106.1 71.4 20.3
...
2023 09 15 01 52 23.0 +24 50 58 0.03335 1.0299 135.2 43.5 18.8
2023 09 16 01 22 32.1 +26 26 01 0.03266 1.0310 140.4 38.4 18.6
2023 09 17 00 51 02.7 +27 37 42 0.03247 1.0321 144.8 34.1 18.5
...
2023 09 23 22 07 34.5 +26 05 55 0.04107 1.0366 142.6 36.0 19.1
...
2023 10 01 20 36 16.5 +19 12 37 0.06634 1.0376 121.5 55.4 20.7
...
2023 10 16 19 52 11.7 +13 24 56 0.1211 1.0239 99.4 73.9 22.5
M. P. C. Staff (C) Copyright 2023 MPC M.P.E.C. 2023-S13
More information about the Iaude
mailing list